Location: Agua Amarilla
(10.0342°N, 66.8490°W)
Time: 05:02:42
(UTC+00:00)

YAOGAN 1 - Pass Details

Date: 26 June 2022
Orbit: 617 x 619 km, 97.9° (Epoch: 18 August)

Event Time Altitude Azimuth Distance (km) Brightness Sun altitude
Exits shadow 23:37:19 - 167° (SSE) 2,656 5.4 -11.0°
Reaches altitude 10° 23:38:57 10° 167° (SSE) 1,976 4.8 -11.4°
Maximum altitude 23:43:15 86° 80° (E) 623 2.5 -12.3°
Drops below altitude 10° 23:47:33 10° 350° (N) 1,976 5.7 -13.3°
Sets 23:49:44 0° 350° (N) 2,882 6.6 -13.8°
